Regional Weather Roundup
Issued by NWS Upton, NY

Current Version | Previous Version | Text Only | Print | Product List | Glossary On
Versions: 1 2 3 4 5 6 7 8 9 10 11 12 13 14 15 16 17 18 19 20 21 22 23 24 25 26
000
ASUS41 KOKX 230805
RWROKX

REGIONAL WEATHER ROUNDUP
NATIONAL WEATHER SERVICE NEW YORK NY
400 AM EDT WED APR 23 2014

NOTE: "FAIR" INDICATES FEW OR NO CLOUDS BELOW 12,000 FEET WITH NO
SIGNIFICANT WEATHER AND/OR OBSTRUCTIONS TO VISIBILITY.

NYZ071-072-176-178-NJZ106-104-230900-
NEW YORK CITY METRO AREA


CITY           SKY/WX    TMP DP  RH WIND       PRES   REMARKS
CENTRAL PARK   CLOUDY    56  43  61 VRB6      29.53S
LAGUARDIA APRT MOCLDY    56  42  59 NW14      29.50R
KENNEDY INTL   MOCLDY    58  43  57 NW18G29   29.51R
NEWARK/LIBERTY CLOUDY    57  45  64 NW12      29.51S
TETERBORO      PTCLDY    56  43  61 NW7       29.50S
$$

NYZ177-179-078>081-230900-
LONG ISLAND NEW YORK

CITY           SKY/WX    TMP DP  RH WIND       PRES   REMARKS
FARMINGDALE    MOCLDY    53  48  83 W7        29.49R
ISLIP          PTCLDY    49  47  93 W6        29.46S FOG
SHIRLEY        PTCLDY    44  43  96 CALM      29.47F FOG
WESTHAMPTON    MOCLDY    37  36  93 CALM      29.47F FOG
MONTAUK POINT    N/A     48  45  89 S6        29.49R
$$

NYZ052-065-067-230900-
HUDSON VALLEY

CITY           SKY/WX    TMP DP  RH WIND       PRES   REMARKS
WHITE PLAINS   MOCLDY    53  45  74 NW15      29.48R
NEWBURGH       MOCLDY    52  48  87 CALM      29.52R
MONTGOMERY     CLOUDY    52  42  69 NW8       29.51R
POUGHKEEPSIE   CLOUDY    52  48  86 NE10      29.50S
ALBANY         LGT RAIN  45  37  73 NW12G20   29.54F
$$

NJZ001-105-106-008-010-013-015-019>022-104-230900-
NEW JERSEY

CITY           SKY/WX    TMP DP  RH WIND       PRES   REMARKS
NEWARK/LIBERTY CLOUDY    57  45  64 NW12      29.51S
TETERBORO      PTCLDY    56  43  61 NW7       29.50S
CALDWELL       PTCLDY    53  44  71 NW5       29.53R
MORRISTOWN     CLOUDY    55  45  67 NW9       29.53R
SOMERVILLE     PTCLDY    51  36  56 NW9       29.53R
LINDEN         PTSUNNY   57  43  59 W15       29.53S
SUSSEX         CLOUDY    50  42  74 N10G21    29.56R HAZE
ANDOVER          N/A     49  40  71 N9G17     29.56R
TRENTON        MOCLDY    50  32  50 NW13G31   29.58R
MILLVILLE      CLOUDY    52  35  52 NW23G31   29.64R
ATLANTIC CITY  CLOUDY    54  33  45 W20G29    29.59R
WRIGHTSTOWN    CLOUDY    51  35  54 NW13G28   29.57R
TOMS RIVER     CLOUDY    54  34  47 W18       29.56R
BELMAR         CLOUDY    55  39  54 W12G23    29.53S
$$

PAZ047>061-062-071-230900-
EASTERN PENNSYLVANIA

CITY           SKY/WX    TMP DP  RH WIND       PRES   REMARKS
PHILADELPHIA   MOCLDY    51  31  46 W12G26    29.63S
ALLENTOWN      CLOUDY    48  31  51 W13G24    29.61R
SCRANTON       CLOUDY    45  32  60 W16       29.60S
$$

CTZ002-004>006-009-010-012-RIZ004-006-007-MAZ004-011-015-230900-
SOUTHERN NEW ENGLAND
 IN CT

CITY           SKY/WX    TMP DP  RH WIND       PRES   REMARKS
BRADLEY INTL   CLOUDY    52  43  71 NW5       29.47F
HARTFORD       CLOUDY    54  44  69 NW12      29.48S
DANBURY        CLOUDY    51  46  83 N10       29.50R
WTRBRY/OXFORD  CLOUDY    50  43  76 N9        29.51F
BRIDGEPORT     PTCLDY    49  47  93 E5        29.47S
MERIDEN        CLOUDY    49  47  93 CALM      29.48S
NEW HAVEN      CLOUDY    51  49  92 N3        29.47F
CHESTER        PTSUNNY   52  48  87 NW3       29.47F
GROTON         MOCLDY    43  43 100 CALM      29.45F FOG
WILLIMANTIC    FOG       49  47  93 CALM      29.46F VSB 1/4

 IN RI

CITY           SKY/WX    TMP DP  RH WIND       PRES   REMARKS
PROVIDENCE     CLOUDY    49  48  97 W3        29.46S
BLOCK ISLAND   CLEAR     46  43  87 W6        29.46S
WESTERLY       MOCLDY    45  44  97 CALM      29.46F

 IN MA

CITY           SKY/WX    TMP DP  RH WIND       PRES   REMARKS
BOSTON         PTCLDY    51  49  92 SW5       29.44F
WORCESTER      CLOUDY    51  48  89 W12       29.44F
WESTFIELD      CLOUDY    53  43  68 NW12      29.47F
PROVINCETOWN   CLEAR     46  46 100 MISG      29.45F
NANTUCKET      PTCLDY    46  44  93 W7        29.46F
$$

ANZ330-335-338-340-345-350-353-355-230900-
COASTAL MARINE OBSERVATIONS


STATION/POSITION TIME  SKY/WX   TEMP    WIND        PRES    VSBY  WAVE
                                AIR SEA DIR/SP/G                  HT/PER
                 (UTC)          (F)     (DEG/KT/KT) (MB)    (MI)  (FT/S)
NY HARB ENTRANCE 0800            53 47  VRB 16/ 17   998.6
4S FIRE IS       0700               47                N/A           3/ 8
23SW MTP         0800            47 42  250/  8/ 10  997.5          3/ 8
HUDSON CANYON    0700            48 45  230/ 10/ 12  999.5          4/ 8
EXECUTION ROCKS  0800            54 46  310/ 10/ 14   N/A
WESTERN LI SOUND 0800            53     260/  8/ 14   N/A           0
CENTRAL LI SOUND 0700            45 44  110/  4/  4   N/A           0
EASTERN LI SOUND NOT AVBL
ROBBINS REEF     0800            57     300/ 15/ 18   N/A
$$


>>>>>>>>>>>>>>>>>>>>>>>>>>>> KEY <<<<<<<<<<<<<<<<<<<<<<<<<<<
>                                                          <
>     SKY/WX - SKY CONDITION/PRESENT WEATHER               <
>     TMP    - TEMPERATURE IN FAHRENHEIT                   <
>     DP     - DEWPOINT IN FAHRENHEIT                      <
>     RH     - RELATIVE HUMIDITY IN PERCENT                <
>     WIND   - DIRECTION AND SPEED IN MPH                  <
>     PRES   - MEAN SEA LEVEL PRESSURE IN INCHES OF HG     <
>     WCI    - WIND CHILL INDEX                            <
>     VSB    - VISIBILITY IN MILES                         <
>     HX     - HEAT INDEX                                  <
>     TC     - TEMPERATURE IN CELSIUS                      <
>     VRB    - VARIABLE WIND DIRECTION                     <
>                                                          <
>>>>>>>>>>>>>>>>>>>>>>>>>>>> KEY <<<<<<<<<<<<<<<<<<<<<<<<<<<





USA.gov is the U.S. government's official web portal to all federal, state and local government web resources and services.